Tracking 30995 objects as of 5-Jul-2025
HD Live streaming from Space Station
objects crossing your sky now

STARLINK-4758

Track STARLINK-4758 now!
10-day predictions
STARLINK-4758 is classified as:


NORAD ID: 53820
Int'l Code: 2022-114C
Perigee: 546.0 km
Apogee: 547.8 km
Inclination: 53.2 °
Period: 95.4 minutes
Semi major axis: 6917 km
RCS: Unknown
Launch date: September 19, 2022
Source: United States (US)
Launch site: AIR FORCE EASTERN TEST RANGE (AFETR)
Your satellite tracking list
CZ-2D DEB
Track 1 satellite(s)




NASA's NSSDC Master Catalog

Two Line Element Set (TLE):
1 53820U 22114C   25185.72246779  .00000067  00000-0  22326-4 0  9995
2 53820  53.2200 337.5100 0001292  93.1637 266.9503 15.08836032155394
Source of the keplerian elements: AFSPC